H1 CPF 2 NER 2023 8 21 9 233 01 glonass144 H2 2207501 9144 52984 2023 8 21 0 0 0 2023 8 24 23 45 0 900 1 1 0 0 0 1 H9 10 0 60177 0.00000 0 -4131995.091 -12638446.650 -21745389.047 10 0 60177 900.00000 0 -1562792.140 -11678210.822 -22600373.431 10 0 60177 1800.00000 0 1145231.908 -10887416.428 -23015388.567 10 0 60177 2700.00000 0 3926961.213 -10292024.865 -22982316.262 10 0 60177 3600.00000 0 6713514.393 -9906231.780 -22501777.395 10 0 60177 4500.00000 0 9434878.761 -9731927.946 -21583121.580 10 0 60177 5400.00000 0 12022597.731 -9758697.655 -20244244.938 10 0 60177 6300.00000 0 14412399.410 -9964354.375 -18511239.499 10 0 60177 7200.00000 0 16546656.765 -10315990.466 -16417881.036 10 0 60177 8100.00000 0 18376576.789 -10771495.936 -14004965.461 10 0 60177 9000.00000 0 19864027.481 -11281481.104 -11319506.979 10 0 60177 9900.00000 0 20982926.784 -11791520.935 -8413814.112 10 0 60177 10800.00000 0 21720136.165 -12244624.999 -5344462.230 10 0 60177 11700.00000 0 22075822.541 -12583827.543 -2171183.387 10 0 60177 12600.00000 0 22063274.745 -12754786.967 1044304.038 10 0 60177 13500.00000 0 21708183.996 -12708283.946 4239502.184 10 0 60177 14400.00000 0 21047420.503 -12402511.979 7352352.751 10 0 60177 15300.00000 0 20127359.349 -11805063.126 10322443.886 10 0 60177 16200.00000 0 19001827.723 -10894524.918 13092181.115 10 0 60177 17100.00000 0 17729761.090 -9661621.170 15607899.593 10 0 60177 18000.00000 0 16372667.716 -8109848.748 17820896.443 10 0 60177 18900.00000 0 14992008.362 -6255583.677 19688363.925 10 0 60177 19800.00000 0 13646600.918 -4127652.054 21174206.413 10 0 60177 20700.00000 0 12390158.166 -1766383.505 22249726.616 10 0 60177 21600.00000 0 11269060.684 777813.905 22894169.090 10 0 60177 22500.00000 0 10320456.823 3446298.836 23095111.837 10 0 60177 23400.00000 0 9570767.784 6174386.398 22848699.445 10 0 60177 24300.00000 0 9034658.974 8893792.996 22159714.041 10 0 60177 25200.00000 0 8714519.487 11535236.559 21041483.020 10 0 60177 26100.00000 0 8600470.701 14031086.016 19515625.231 10 0 60177 27000.00000 0 8670903.178 16317951.818 17611640.040 10 0 60177 27900.00000 0 8893519.343 18339111.495 15366346.303 10 0 60177 28800.00000 0 9226838.499 20046670.667 12823181.017 10 0 60177 29700.00000 0 9622101.486 21403370.449 10031369.956 10 0 60177 30600.00000 0 10025495.480 22383966.429 7044985.091 10 0 60177 31500.00000 0 10380605.817 22976121.733 3921905.984 10 0 60177 32400.00000 0 10630991.766 23180776.631 722704.422 10 0 60177 33300.00000 0 10722777.611 23011978.768 -2490526.651 10 0 60177 34200.00000 0 10607149.188 22496180.604 -5655377.341 10 0 60177 35100.00000 0 10242649.594 21671032.993 -8710334.693 10 0 60177 36000.00000 0 9597175.824 20583725.163 -11595982.291 10 0 60177 36900.00000 0 8649590.392 19288940.615 -14256161.637 10 0 60177 37800.00000 0 7390878.034 17846514.840 -16639072.045 10 0 60177 38700.00000 0 5824796.652 16318893.534 -18698286.929 10 0 60177 39600.00000 0 3967993.013 14768498.518 -20393665.951 10 0 60177 40500.00000 0 1849576.300 13255112.584 -21692144.703 10 0 60177 41400.00000 0 -489834.463 11833393.669 -22568386.003 10 0 60177 42300.00000 0 -2999550.736 10550623.288 -23005279.713 10 0 60177 43200.00000 0 -5620683.577 9444784.192 -22994281.034 10 0 60177 44100.00000 0 -8288364.359 8543048.166 -22535580.442 10 0 60177 45000.00000 0 -10934224.954 7860737.516 -21638101.765 10 0 60177 45900.00000 0 -13489034.183 7400803.600 -20319328.322 10 0 60177 46800.00000 0 -15885380.664 7153843.786 -18604960.400 10 0 60177 47700.00000 0 -18060289.999 7098655.379 -16528410.806 10 0 60177 48600.00000 0 -19957666.956 7203302.094 -14130148.393 10 0 60177 49500.00000 0 -21530460.644 7426646.960 -11456902.660 10 0 60177 50400.00000 0 -22742462.268 7720285.574 -8560745.369 10 0 60177 51300.00000 0 -23569660.603 8030796.617 -5498067.703 10 0 60177 52200.00000 0 -24001099.215 8302213.115 -2328473.641 10 0 60177 53100.00000 0 -24039200.372 8478608.569 886387.976 10 0 60177 54000.00000 0 -23699543.514 8506687.399 4084029.064 10 0 60177 54900.00000 0 -23010109.071 8338269.233 7202341.334 10 0 60177 55800.00000 0 -22010021.108 7932561.383 10180804.353 10 0 60177 56700.00000 0 -20747843.131 7258123.145 12961658.778 10 0 60177 57600.00000 0 -19279499.984 6294438.883 15491022.011 10 0 60177 58500.00000 0 -17665914.074 5033033.642 17719924.935 10 0 60177 59400.00000 0 -15970455.611 3478084.495 19605250.357 10 0 60177 60300.00000 0 -14256313.674 1646501.925 21110556.063 10 0 60177 61200.00000 0 -12583897.684 -432522.307 22206767.734 10 0 60177 62100.00000 0 -11008376.946 -2718482.334 22872729.724 10 0 60177 63000.00000 0 -9577459.738 -5161000.861 23095604.268 10 0 60177 63900.00000 0 -8329503.163 -7701688.299 22871112.518 10 0 60177 64800.00000 0 -7292031.072 -10276342.476 22203613.495 10 0 60177 65700.00000 0 -6480720.426 -12817399.153 21106019.799 10 0 60177 66600.00000 0 -5898897.225 -15256533.251 19599551.624 10 0 60177 67500.00000 0 -5537562.150 -17527304.524 17713333.372 10 0 60177 68400.00000 0 -5375944.309 -19567739.271 15483839.773 10 0 60177 69300.00000 0 -5382559.765 -21322742.033 12954201.149 10 0 60177 70200.00000 0 -5516730.540 -22746237.783 10173380.007 10 0 60177 71100.00000 0 -5730500.616 -23802955.806 7195233.657 10 0 60177 72000.00000 0 -5970868.661 -24469780.912 4077479.913 10 0 60177 72900.00000 0 -6182243.714 -24736615.153 880585.034 10 0 60177 73800.00000 0 -6309020.233 -24606713.434 -2333405.089 10 0 60177 74700.00000 0 -6298163.559 -24096478.176 -5502068.049 10 0 60177 75600.00000 0 -6101695.871 -23234720.837 -8563818.876 10 0 60177 76500.00000 0 -5678976.533 -22061420.549 -11459110.902 10 0 60177 77400.00000 0 -4998679.081 -20626031.418 -14131599.571 10 0 60177 78300.00000 0 -4040379.585 -18985409.223 -16529245.888 10 0 60177 79200.00000 0 -2795687.463 -17201444.438 -18605337.302 10 0 60177 80100.00000 0 -1268868.986 -15338501.067 -20319405.430 10 0 60177 81000.00000 0 523064.779 -13460769.041 -21638022.152 10 0 60177 81900.00000 0 2550811.282 -11629641.584 -22535458.044 10 0 60177 82800.00000 0 4773753.741 -9901227.946 -22994189.907 10 0 60177 83700.00000 0 7141422.849 -8324106.046 -23005247.183 10 0 60177 84600.00000 0 9595382.906 -6937409.393 -22568390.278 10 0 60177 85500.00000 0 12071464.281 -5769328.451 -21692117.101 10 0 60178 0.00000 0 14502249.134 -4836089.041 -20393497.709 10 0 60178 900.00000 0 16819708.040 -4141449.604 -18697839.403 10 0 60178 1800.00000 0 18957874.024 -3676738.731 -16638190.667 10 0 60178 2700.00000 0 20855446.383 -3421428.586 -14254691.416 10 0 60178 3600.00000 0 22458211.988 -3344219.955 -11593784.115 10 0 60178 4500.00000 0 23721183.814 -3404591.084 -8707300.989 10 0 60178 5400.00000 0 24610367.144 -3554743.398 -5651445.858 10 0 60178 6300.00000 0 25104079.624 -3741860.212 -2485691.143 10 0 60178 7200.00000 0 25193770.383 -3910581.349 728387.555 10 0 60178 8100.00000 0 24884304.891 -4005587.578 3928315.715 10 0 60178 9000.00000 0 24193704.754 -3974184.405 7051938.767 10 0 60178 9900.00000 0 23152354.768 -3768775.048 10038631.190 10 0 60178 10800.00000 0 21801711.875 -3349117.532 12830471.961 10 0 60178 11700.00000 0 20192571.518 -2684270.321 15373363.527 10 0 60178 12600.00000 0 18382965.080 -1754144.406 17618072.883 10 0 60178 13500.00000 0 16435777.173 -550596.586 19521175.286 10 0 60178 14400.00000 0 14416182.600 921981.906 21045883.368 10 0 60178 15300.00000 0 12389009.814 2646606.151 22162746.797 10 0 60178 16200.00000 0 10416140.112 4594170.375 22850210.280 10 0 60178 17100.00000 0 8554049.782 6724433.684 23095020.434 10 0 60178 18000.00000 0 6851596.153 8987478.441 22892474.701 10 0 60178 18900.00000 0 5348138.066 11325581.772 22246508.321 10 0 60178 19800.00000 0 4072067.396 13675423.788 21169618.027 10 0 60178 20700.00000 0 3039811.319 15970542.322 19682623.941 10 0 60178 21600.00000 0 2255345.661 18143933.768 17814273.769 10 0 60178 22500.00000 0 1710238.709 20130693.434 15600696.106 10 0 60178 23400.00000 0 1384223.131 21870586.791 13084712.365 10 0 60178 24300.00000 0 1246271.769 23310445.488 10315019.377 10 0 60178 25200.00000 0 1256132.241 24406288.754 7345257.222 10 0 60178 26100.00000 0 1366255.970 25125081.652 4232979.271 10 0 60178 27000.00000 0 1524040.645 25446056.360 1038543.500 10 0 60178 27900.00000 0 1674291.623 25361540.477 -2176054.047 10 0 60178 28800.00000 0 1761798.204 24877256.710 -5348381.187 10 0 60178 29700.00000 0 1733915.499 24012080.315 -8416783.573 10 0 60178 30600.00000 0 1543041.916 22797263.434 -11321586.738 10 0 60178 31500.00000 0 1148886.385 21275157.928 -14006262.292 10 0 60178 32400.00000 0 520428.029 19497489.580 -16418534.890 10 0 60178 33300.00000 0 -362516.255 17523255.575 -18511407.722 10 0 60178 34200.00000 0 -1508184.302 15416333.199 -20244085.817 10 0 60178 35100.00000 0 -2912269.947 13242899.991 -21582778.564 10 0 60178 36000.00000 0 -4557860.156 11068773.534 -22501365.300 10 0 60178 36900.00000 0 -6415912.445 8956782.543 -22981910.533 10 0 60178 37800.00000 0 -8446254.077 6964279.487 -23015018.473 10 0 60178 38700.00000 0 -10599062.418 5140898.938 -22600019.687 10 0 60178 39600.00000 0 -12816765.338 3526655.430 -21744986.061 10 0 60178 40500.00000 0 -15036282.684 2150460.157 -20466573.648 10 0 60178 41400.00000 0 -17191515.291 1029118.027 -18789696.377 10 0 60178 42300.00000 0 -19215977.315 166846.281 -16747037.006 10 0 60178 43200.00000 0 -21045461.520 -444666.342 -14378404.976 10 0 60178 44100.00000 0 -22620625.552 -825663.842 -11729953.912 10 0 60178 45000.00000 0 -23889390.509 -1007217.355 -8853274.508 10 0 60178 45900.00000 0 -24809051.029 -1029658.121 -5804381.050 10 0 60178 46800.00000 0 -25348008.315 -940617.051 -2642612.092 10 0 60178 47700.00000 0 -25487053.621 -792755.501 570532.421 10 0 60178 48600.00000 0 -25220148.736 -641284.879 3772594.058 10 0 60178 49500.00000 0 -24554671.582 -541381.429 6901374.609 10 0 60178 50400.00000 0 -23511117.687 -545606.573 9896146.194 10 0 60178 51300.00000 0 -22122271.136 -701442.676 12698828.873 10 0 60178 52200.00000 0 -20431880.916 -1049048.710 15255112.877 10 0 60178 53100.00000 0 -18492899.105 -1619330.661 17515503.947 10 0 60178 54000.00000 0 -16365355.308 -2432407.834 19436272.227 10 0 60178 54900.00000 0 -14113956.451 -3496539.439 20980287.358 10 0 60178 55800.00000 0 -11805511.931 -4807556.316 22117724.791 10 0 60178 56700.00000 0 -9506290.803 -6348821.645 22826631.009 10 0 60178 57600.00000 0 -7279419.906 -8091722.562 23093338.010 10 0 60178 58500.00000 0 -5182429.762 -9996672.704 22912720.126 10 0 60178 59400.00000 0 -3265048.602 -12014584.820 22288289.016 10 0 60178 60300.00000 0 -1567334.484 -14088753.310 21232125.396 10 0 60178 61200.00000 0 -118221.512 -16157069.720 19764648.803 10 0 60178 62100.00000 0 1065460.825 -18154480.527 17914229.397 10 0 60178 63000.00000 0 1979455.548 -20015586.345 15716648.465 10 0 60178 63900.00000 0 2632014.644 -21677275.584 13214417.013 10 0 60178 64800.00000 0 3043307.278 -23081283.745 10455964.378 10 0 60178 65700.00000 0 3244324.807 -24176572.131 7494711.312 10 0 60178 66600.00000 0 3275328.552 -24921426.705 4388044.401 10 0 60178 67500.00000 0 3183905.564 -25285188.972 1196210.769 10 0 60178 68400.00000 0 3022714.182 -25249545.671 -2018846.111 10 0 60178 69300.00000 0 2847014.608 -24809322.148 -5194687.158 10 0 60178 70200.00000 0 2712089.048 -23972744.891 -8269591.609 10 0 60178 71100.00000 0 2670661.067 -22761160.859 -11183760.231 10 0 60178 72000.00000 0 2770424.149 -21208224.106 -13880483.837 10 0 60178 72900.00000 0 3051785.163 -19358582.727 -16307253.707 10 0 60178 73800.00000 0 3545919.564 -17266120.261 -18416791.588 10 0 60178 74700.00000 0 4273222.098 -14991824.679 -20167978.487 10 0 60178 75600.00000 0 5242220.152 -12601373.840 -21526663.529 10 0 60178 76500.00000 0 6448997.306 -10162538.313 -22466336.618 10 0 60178 77400.00000 0 7877153.035 -7742510.235 -22968651.318 10 0 60178 78300.00000 0 9498301.767 -5405269.944 -23023787.479 10 0 60178 79200.00000 0 11273091.617 -3209100.482 -22630646.233 10 0 60178 80100.00000 0 13152700.983 -1204353.796 -21796873.413 10 0 60178 81000.00000 0 15080750.910 568438.227 -20538710.766 10 0 60178 81900.00000 0 16995553.336 2080029.416 -18880677.783 10 0 60178 82800.00000 0 18832600.978 3313441.073 -16855090.378 10 0 60178 83700.00000 0 20527194.200 4264419.821 -14501425.898 10 0 60178 84600.00000 0 22017094.274 4941353.733 -11865547.105 10 0 60178 85500.00000 0 23245091.217 5364651.979 -8998800.715 10 0 60179 0.00000 0 24161377.877 5565615.951 -5957008.944 10 0 60179 900.00000 0 24725630.665 5584851.521 -2799372.798 10 0 60179 1800.00000 0 24908708.181 5470291.203 412686.539 10 0 60179 2700.00000 0 24693898.123 5274912.010 3616730.214 10 0 60179 3600.00000 0 24077659.322 5054246.806 6750519.849 10 0 60179 4500.00000 0 23069828.851 4863795.846 9753228.550 10 0 60179 5400.00000 0 21693286.316 4756448.864 12566620.593 10 0 60179 6300.00000 0 19983090.275 4780027.170 15136176.827 10 0 60179 7200.00000 0 17985123.779 4975049.730 17412144.236 10 0 60179 8100.00000 0 15754306.323 5372817.283 19350489.980 10 0 60179 9000.00000 0 13352447.180 5993894.885 20913742.457 10 0 60179 9900.00000 0 10845829.551 6847056.273 22071704.265 10 0 60179 10800.00000 0 8302625.588 7928734.078 22802024.625 10 0 60179 11700.00000 0 5790248.796 9222998.866 23090621.464 10 0 60179 12600.00000 0 3372752.493 10702068.051 22931946.112 10 0 60179 13500.00000 0 1108380.725 12327324.036 22329086.314 10 0 60179 14400.00000 0 -952628.483 14050799.955 21293705.973 10 0 60179 15300.00000 0 -2769898.037 15817072.240 19845822.816 10 0 60179 16200.00000 0 -4314349.446 17565482.437 18013427.828 10 0 60179 17100.00000 0 -5569164.809 19232597.055 15831953.010 10 0 60179 18000.00000 0 -6530234.147 20754804.067 13343596.700 10 0 60179 18900.00000 0 -7206070.128 22070938.721 10596518.264 10 0 60179 19800.00000 0 -7617194.232 23124829.637 7643916.495 10 0 60179 20700.00000 0 -7795020.210 23867658.872 4543008.451 10 0 60179 21600.00000 0 -7780281.788 24260036.913 1353927.602 10 0 60179 22500.00000 0 -7621070.701 24273704.909 -1861437.985 10 0 60179 23400.00000 0 -7370567.763 23892791.667 -5040645.131 10 0 60179 24300.00000 0 -7084562.889 23114571.248 -8121909.383 10 0 60179 25200.00000 0 -6818869.216 21949687.853 -11045309.318 10 0 60179 26100.00000 0 -6626741.264 20421836.955 -13753957.328 10 0 60179 27000.00000 0 -6556407.200 18566914.604 -16195113.449 10 0 60179 27900.00000 0 -6648820.706 16431669.268 -18321219.854 10 0 60179 28800.00000 0 -6935728.768 14071911.672 -20090835.113 10 0 60179 29700.00000 0 -7438138.475 11550356.866 -21469449.406 10 0 60179 30600.00000 0 -8165249.023 8934188.234 -22430164.253 10 0 60179 31500.00000 0 -9113895.432 6292445.101 -22954223.059 10 0 60179 32400.00000 0 -10268528.747 3693342.883 -23031381.806 10 0 60179 33300.00000 0 -11601734.742 1201637.649 -22660112.384 10 0 60179 34200.00000 0 -13075270.204 -1123854.945 -21847634.419 10 0 60179 35100.00000 0 -14641573.896 -3232482.954 -20609774.831 10 0 60179 36000.00000 0 -16245689.022 -5083631.214 -18970657.792 10 0 60179 36900.00000 0 -17827516.470 -6648166.485 -16962231.132 10 0 60179 37800.00000 0 -19324303.875 -7909395.166 -14623638.548 10 0 60179 38700.00000 0 -20673265.501 -8863494.720 -12000450.120 10 0 60179 39600.00000 0 -21814222.195 -9519402.262 -9143766.560 10 0 60179 40500.00000 0 -22692149.739 -9898166.798 -6109215.258 10 0 60179 41400.00000 0 -23259527.952 -10031794.429 -2955858.430 10 0 60179 42300.00000 0 -23478391.163 -9961637.186 254964.494 10 0 60179 43200.00000 0 -23321993.621 -9736395.544 3460836.806 10 0 60179 44100.00000 0 -22776019.915 -9409820.826 6599482.643 10 0 60179 45000.00000 0 -21839289.824 -9038216.103 9609978.863 10 0 60179 45900.00000 0 -20523928.533 -8677842.370 12433936.745 10 0 60179 46800.00000 0 -18854995.644 -8382340.292 15016630.514 10 0 60179 47700.00000 0 -16869589.202 -8200276.684 17308051.021 10 0 60179 48600.00000 0 -14615462.701 -8172919.099 19263864.867 10 0 60179 49500.00000 0 -12149213.089 -8332331.892 20846261.331 10 0 60179 50400.00000 0 -9534115.229 -8699873.284 22024671.921 10 0 60179 51300.00000 0 -6837692.478 -9285155.985 22776349.953 10 0 60179 52200.00000 0 -4129123.418 -10085514.520 23086800.228 10 0 60179 53100.00000 0 -1476591.197 -11086001.346 22950051.614 10 0 60179 54000.00000 0 1055316.163 -12259912.069 22368768.094 10 0 60179 54900.00000 0 3408048.414 -13569818.270 21354196.567 10 0 60179 55800.00000 0 5531279.132 -14969065.627 19925952.428 10 0 60179 56700.00000 0 7384746.158 -16403675.818 18111646.651 10 0 60179 57600.00000 0 8939671.474 -17814574.009 15946360.802 10 0 60179 58500.00000 0 10179702.621 -19140050.042 13471979.072 10 0 60179 59400.00000 0 11101337.322 -20318351.469 10736389.053 10 0 60179 60300.00000 0 11713814.163 -21290300.687 7792565.437 10 0 60179 61200.00000 0 12038474.140 -22001826.901 4697553.315 10 0 60179 62100.00000 0 12107619.960 -22406306.674 1511369.807 10 0 60179 63000.00000 0 11962920.955 -22466614.235 -1704155.319 10 0 60179 63900.00000 0 11653430.725 -22156794.453 -4886577.802 10 0 60179 64800.00000 0 11233301.084 -21463286.769 -7974052.574 10 0 60179 65700.00000 0 10759289.023 -20385647.024 -10906539.100 10 0 60179 66600.00000 0 10288162.385 -18936735.060 -13626974.357 10 0 60179 67500.00000 0 9874114.533 -17142358.460 -16082390.024 10 0 60179 68400.00000 0 9566298.158 -15040385.697 -18224951.380 10 0 60179 69300.00000 0 9406583.460 -12679364.432 -20012896.970 10 0 60179 70200.00000 0 9427636.589 -10116701.707 -21411360.084 10 0 60179 71100.00000 0 9651400.669 -7416481.207 -22393055.505 10 0 60179 72000.00000 0 10088044.705 -4647008.308 -22938817.667 10 0 60179 72900.00000 0 10735425.785 -1878185.019 -23037979.395 10 0 60179 73800.00000 0 11579088.217 821175.853 -22688583.593 10 0 60179 74700.00000 0 12592800.377 3385985.344 -21897423.494 10 0 60179 75600.00000 0 13739607.167 5757352.061 -20679910.620 10 0 60179 76500.00000 0 14973354.058 7884792.016 -19059772.870 10 0 60179 77400.00000 0 16240618.475 9728082.728 -17068588.687 10 0 60179 78300.00000 0 17482966.970 11258684.797 -14745166.480 10 0 60179 79200.00000 0 18639442.612 12460672.517 -12134781.659 10 0 60179 80100.00000 0 19649177.116 13331135.795 -9288286.596 10 0 60179 81000.00000 0 20454017.030 13880038.240 -6261111.490 10 0 60179 81900.00000 0 21001052.501 14129539.206 -3112176.300 10 0 60179 82800.00000 0 21244941.404 14112810.335 97264.151 10 0 60179 83700.00000 0 21149930.514 13872398.611 3304818.538 10 0 60179 84600.00000 0 20691488.353 13458206.886 6448176.743 10 0 60179 85500.00000 0 19857480.990 12925178.890 9466322.510 10 0 60180 0.00000 0 18648841.748 12330787.858 12300716.840 10 0 60180 900.00000 0 17079706.290 11732435.415 14896430.561 10 0 60180 1800.00000 0 15177009.546 11184871.743 17203200.581 10 0 60180 2700.00000 0 12979559.572 10737744.743 19176395.067 10 0 60180 3600.00000 0 10536628.687 10433381.796 20777865.988 10 0 60180 4500.00000 0 7906119.999 10304896.485 21976675.220 10 0 60180 5400.00000 0 5152385.237 10374699.030 22749681.262 10 0 60180 6300.00000 0 2343783.735 10653472.136 23081976.473 10 0 60180 7200.00000 0 -449917.271 11139654.547 22967167.511 10 0 60180 8100.00000 0 -3160194.760 11819453.548 22407494.389 10 0 60180 9000.00000 0 -5722366.232 12667385.886 21413786.313 10 0 60180 9900.00000 0 -8078024.328 13647324.822 20005255.179 10 0 60180 10800.00000 0 -10177210.547 14714010.247 18209130.337 10 0 60180 11700.00000 0 -11980239.405 15814959.587 16060140.911 10 0 60180 12600.00000 0 -13459098.453 16892700.607 13599854.632 10 0 60180 13500.00000 0 -14598366.875 17887233.593 10875884.768 10 0 60180 14400.00000 0 -15395614.951 18738620.550 7940979.229 10 0 60180 15300.00000 0 -15861268.012 19389593.275 4852008.382 10 0 60180 16200.00000 0 -16017940.649 19788070.880 1668870.214 10 0 60180 17100.00000 0 -15899269.027 19889480.545 -1546666.565 10 0 60180 18000.00000 0 -15548290.265 19658783.073 -4732159.337 10 0 60180 18900.00000 0 -15015436.989 19072116.694 -7825705.076 10 0 60180 19800.00000 0 -14356231.660 18117988.357 -10767146.668 10 0 60180 20700.00000 0 -13628778.133 16797960.527 -13499248.065 10 0 60180 21600.00000 0 -12891156.789 15126802.647 -15968814.753 10 0 60180 22500.00000 0 -12198833.816 13132098.976 -18127737.028 10 0 60180 23400.00000 0 -11602194.844 10853327.489 -19933935.031 10 0 60180 24300.00000 0 -11144307.930 8340446.865 -21352186.475 10 0 60180 25200.00000 0 -10859011.268 5652049.439 -22354820.398 10 0 60180 26100.00000 0 -10769407.192 2853156.420 -22922262.944 10 0 60180 27000.00000 0 -10886826.861 12746.758 -23043424.149 10 0 60180 27900.00000 0 -11210309.940 -2798877.622 -22715917.953 10 0 60180 28800.00000 0 -11726621.741 -5512780.547 -21946110.908 10 0 60180 29700.00000 0 -12410807.406 -8064022.323 -20748998.490 10 0 60180 30600.00000 0 -13227259.816 -10394122.915 -19147911.362 10 0 60180 31500.00000 0 -14131256.056 -12453255.022 -17174057.310 10 0 60180 32400.00000 0 -15070897.216 -14202075.940 -14865907.914 10 0 60180 33300.00000 0 -15989369.124 -15613122.345 -12268442.154 10 0 60180 34200.00000 0 -16827427.811 -16671710.602 -9432262.148 10 0 60180 35100.00000 0 -17526004.014 -17376306.249 -6412598.850 10 0 60180 36000.00000 0 -18028815.872 -17738348.769 -3268227.804 10 0 60180 36900.00000 0 -18284878.770 -17781540.895 -60316.987 10 0 60180 37800.00000 0 -18250805.627 -17540634.271 3148769.989 10 0 60180 38700.00000 0 -17892800.175 -17059764.696 6296691.196 10 0 60180 39600.00000 0 -17188259.113 -16390408.988 9322339.797 10 0 60180 40500.00000 0 -16126915.501 -15589051.125 12167029.592 10 0 60180 41400.00000 0 -14711475.512 -14714657.236 14775629.596 10 0 60180 42300.00000 0 -12957722.043 -13826066.554 17097625.826 10 0 60180 43200.00000 0 -10894081.042 -12979408.391 19088090.402 10 0 60180 44100.00000 0 -8560668.746 -12225653.557 20708540.124 10 0 60180 45000.00000 0 -6007859.472 -11608402.440 21927669.089 10 0 60180 45900.00000 0 -3294433.126 -11162001.679 22721942.475 10 0 60180 46800.00000 0 -485378.649 -10910067.359 23076041.329 10 0 60180 47700.00000 0 2350556.531 -10864475.573 22983150.852 10 0 60180 48600.00000 0 5143470.869 -11024861.786 22445087.481 10 0 60180 49500.00000 0 7824960.604 -11378649.421 21472262.778 10 0 60180 50400.00000 0 10330711.037 -11901606.296 20083484.864 10 0 60180 51300.00000 0 12602921.460 -12558905.832 18305600.869 10 0 60180 52200.00000 0 14592464.762 -13306649.141 16172986.549 10 0 60180 53100.00000 0 16260693.246 -14093784.981 13726891.889 10 0 60180 54000.00000 0 17580816.562 -14864347.920 11014654.178 10 0 60180 54900.00000 0 18538794.979 -15559921.585 8088792.495 10 0 60180 55800.00000 0 19133710.987 -16122224.077 5006000.049 10 0 60180 56700.00000 0 19377603.726 -16495707.067 1826052.925 10 0 60180 57600.00000 0 19294773.020 -16630059.044 -1389344.275 10 0 60180 58500.00000 0 18920581.967 -16482506.617 -4577753.801 10 0 60180 59400.00000 0 18299808.178 -16019815.828 -7677217.967 10 0 60180 60300.00000 0 17484612.912 -15219907.659 -10627466.369 10 0 60180 61200.00000 0 16532213.653 -14073017.850 -13371093.102 10 0 60180 62100.00000 0 15502358.455 -12582350.199 -15854680.459 10 0 60180 63000.00000 0 14454708.924 -10764193.762 -18029846.515 10 0 60180 63900.00000 0 13446242.772 -8647497.001 -19854195.460 10 0 60180 64800.00000 0 12528786.141 -6272914.901 -21292151.531 10 0 60180 65700.00000 0 11746780.424 -3691367.312 -22315659.721 10 0 60180 66600.00000 0 11135378.450 -962167.603 -22904739.116 10 0 60180 67500.00000 0 10718950.841 1849201.200 -23047877.730 10 0 60180 68400.00000 0 10510065.944 4673570.606 -22742260.835 10 0 60180 69300.00000 0 10508986.615 7440727.923 -21993828.126 10 0 60180 70200.00000 0 10703705.099 10082104.660 -20817158.439 10 0 60180 71100.00000 0 11070514.393 12533400.096 -19235184.198 10 0 60180 72000.00000 0 11575091.581 14737030.598 -17278741.157 10 0 60180 72900.00000 0 12174046.824 16644302.717 -14985962.342 10 0 60180 73800.00000 0 12816871.817 18217219.585 -12401528.231 10 0 60180 74700.00000 0 13448204.458 19429845.773 -9575788.287 10 0 60180 75600.00000 0 14010313.057 20269174.422 -6563771.524 10 0 60180 76500.00000 0 14445694.010 20735461.544 -3424106.127 10 0 60180 77400.00000 0 14699672.156 20842015.074 -217870.078 10 0 60180 78300.00000 0 14722893.047 20614449.293 2992603.982 10 0 60180 79200.00000 0 14473601.213 20089437.940 6144945.551 10 0 60180 80100.00000 0 13919607.800 19313020.339 9177960.367 10 0 60180 81000.00000 0 13039864.411 18338533.524 12032817.782 10 0 60180 81900.00000 0 11825576.856 17224258.762 14654188.250 10 0 60180 82800.00000 0 10280812.014 16030882.377 16991309.109 10 0 60180 83700.00000 0 8422572.480 14818878.119 18998958.588 10 0 60180 84600.00000 0 6280335.858 13645920.908 20638320.152 10 0 60180 85500.00000 0 3895077.795 12564439.970 21877721.584 99